Location: Berg
(47.2344°N, 9.5296°E)
Time: 12:12:05
(UTC+00:00)

NOAA 19 - Visible Passes

Search period start: 06 December 2021 00:00
Search period end: 16 December 2021 00:00
Orbit: 840 x 861 km, 99.2° (Epoch: 06 December)

Date Brightness Start Highest point End Pass type
(mag) Time Alt. Az. Time Alt. Az. Time Alt. Az.
06 Dec 6.3 16:33:06 10° ESE 16:37:08 22° ENE 16:41:11 10° N visible
06 Dec 5.4 18:11:51 10° S 18:17:17 68° WSW 18:22:46 10° NNW visible
07 Dec 6.5 16:21:57 10° E 16:25:29 18° NE 16:29:02 10° NNE visible
07 Dec 5.1 18:00:00 10° SSE 18:05:27 85° WSW 18:10:59 10° NNW visible
07 Dec 8.0 19:44:32 10° WSW 19:46:56 13° W 19:49:21 10° WNW visible
08 Dec 7.3 06:18:57 10° NNE 06:23:52 32° E 06:28:47 10° SSE visible
08 Dec 6.7 16:10:56 10° E 16:13:51 15° NE 16:16:47 10° NNE visible
08 Dec 5.0 17:48:11 10° SSE 17:53:39 79° ENE 17:59:09 10° NNW visible
08 Dec 7.7 19:31:34 10° SW 19:34:57 16° W 19:38:20 10° NW visible
09 Dec 7.7 06:07:23 10° NE 06:11:57 26° E 06:16:31 10° SSE visible
09 Dec 5.1 17:36:29 10° SSE 17:41:51 64° ENE 17:47:18 10° N visible
09 Dec 7.5 19:18:57 10° SW 19:22:58 21° W 19:27:01 10° NW visible
10 Dec 7.9 05:55:55 10° NE 06:00:01 21° E 06:04:05 10° SE visible
10 Dec 5.3 17:24:50 10° SE 17:30:06 51° ENE 17:35:24 10° N visible
10 Dec 7.1 19:06:33 10° SSW 19:11:01 26° W 19:15:34 10° NW visible
11 Dec 8.1 05:44:36 10° NE 05:48:03 17° E 05:51:29 10° SE visible
11 Dec 5.5 17:13:16 10° SE 17:18:21 42° ENE 17:23:29 10° N visible
11 Dec 6.8 18:54:16 10° SSW 18:59:05 32° W 19:03:59 10° NNW visible
12 Dec 8.2 05:33:35 10° ENE 05:36:03 13° E 05:38:32 10° ESE visible
12 Dec 5.7 17:01:46 10° SE 17:06:38 34° ENE 17:11:32 10° N visible
12 Dec 6.4 18:42:06 10° SSW 18:47:12 40° W 18:52:21 10° NNW visible
13 Dec 6.0 16:50:21 10° ESE 16:54:55 28° ENE 16:59:32 10° N visible
13 Dec 6.0 18:30:03 10° S 18:35:19 50° W 18:40:40 10° NNW visible
14 Dec 6.2 16:39:01 10° ESE 16:43:15 23° ENE 16:47:29 10° N visible
14 Dec 5.6 18:18:03 10° S 18:23:28 62° WSW 18:28:56 10° NNW visible
15 Dec 6.4 16:27:48 10° E 16:31:35 19° NE 16:35:23 10° NNE visible
15 Dec 5.2 18:06:09 10° SSE 18:11:37 78° WSW 18:17:09 10° NNW visible
15 Dec 8.1 19:51:22 10° WSW 19:53:11 12° W 19:55:01 10° WNW visible
